Dewpoint
21 20 23 34 46 46 47 47 46 49 53 51 51 51 50 52 53 52 52 54 58 58 59 60 62 64 65 65 66 66 66 66 65 66 66 66 66 67 67 68 68 68 69 69
17 22 22 27 45 46 45 44 43 49 53 51 51 50 52 53 53 53 53 54 56 58 59 60 62 64 64 65 65 65 66 65 65 66 66 66 66 67 68 69 69 70 69 69
17 22 23 29 44 40 43 43 43 44 53 53 51 49 48 52 55 54 54 55 56 57 59 60 62 62 64 65 64 65 65 65 65 65 66 68 68 66 66 67 69 69 69 69
14 15 16 31 33 43 36 45 44 48 48 39 49 41 43 46 51 53 53 55 54 57 59 60 61 62 63 64 65 65 65 65 65 65 65 65 64 65 65 65 67 68 69 70
11 23 32 34 36 44 37 43 44 49 45 45 46 42 41 48 46 50 53 53 56 56 57 60 61 62 63 64 65 65 65 65 65 65 65 64 63 64 65 64 64 65 67 67
14 20 33 30 43 44 39 37 43 47 46 41 42 41 36 42 43 45 51 54 56 55 57 59 61 62 62 63 64 65 64 64 64 64 65 64 63 63 65 65 64 65 65 66
12 12 29 41 35 43 40 33 28 36 38 32 43 42 38 42 44 46 48 54 56 56 57 58 60 60 61 62 63 64 64 63 63 64 64 64 63 63 65 66 65 64 65 67
10 10 13 23 25 22 40 37 27 12 19 23 43 38 36 43 48 48 51 54 57 56 56 58 59 60 60 61 62 63 63 63 63 63 63 64 64 64 65 67 67 67 67 68
10 10 14 13 18 18 18 26 24 17 29 27 32 39 40 46 47 48 51 54 55 56 55 56 58 59 60 61 61 62 63 63 63 63 63 63 63 64 64 66 68 68 67 68
12 11 14 14 14 16 16 19 16 18 14 21 30 36 34 41 44 46 46 49 53 56 57 57 57 59 60 60 61 62 63 63 63 63 63 63 63 64 65 66 66 68 68 68
13 12 11 15 11 12 14 14 16 18 24 18 24 25 40 40 44 45 47 48 50 52 54 57 57 58 59 59 59 60 62 63 63 64 64 64 64 65 66 66 67 68 68 68
14 13 10 11 16 25 14 12 16 14 14 29 32 27 38 41 42 44 46 50 51 52 53 55 58 57 58 58 59 60 61 62 62 63 65 65 65 66 66 67 67 68 68 68
16 13 12 15 26 29 22 25 23 23 25 26 27 25 40 42 42 44 44 46 47 49 51 53 57 58 58 58 59 59 61 61 61 62 63 64 64 65 66 67 68 68 68 68
19 17 16 17 17 25 27 32 29 29 26 25 28 28 34 39 41 44 45 45 45 48 52 55 56 57 58 59 59 59 60 62 62 63 63 63 64 65 65 66 67 68 69 68
23 21 20 19 20 29 27 30 32 31 30 28 28 31 34 37 39 42 45 47 47 49 52 55 57 57 58 59 60 61 61 62 63 63 64 64 65 66 66 66 67 69 69 69
33 24 25 25 27 30 29 29 32 33 32 31 30 31 38 39 44 44 46 49 49 50 53 55 56 57 58 59 60 62 62 63 64 63 64 66 66 67 67 67 68 69 69 69
33 30 25 22 28 27 24 26 30 30 32 30 29 30 36 36 40 43 46 50 51 51 53 55 56 57 60 62 62 62 63 65 65 65 65 66 67 68 68 68 68 68 67 67
30 32 32 27 30 22 25 28 29 25 28 31 30 30 36 35 38 44 47 49 51 52 53 55 57 61 64 65 66 66 67 67 67 66 66 66 66 67 69 69 69 68 68 67
33 33 31 29 28 28 29 30 32 30 27 31 28 28 34 41 43 42 46 48 51 53 57 58 63 64 65 66 66 65 66 66 66 66 66 66 67 67 67 67 68 68 68 67
36 35 31 31 28 26 29 35 40 30 28 32 30 30 39 42 34 34 54 54 58 60 61 63 64 65 65 64 64 63 63 63 63 63 63 64 65 66 66 66 67 68 66 65
30 32 31 31 30 31 33 37 40 27 27 34 36 34 41 39 39 51 59 59 61 62 63 63 63 62 62 62 61 61 61 60 60 60 60 61 63 65 66 65 66 67 67 65
28 26 29 33 30 27 42 40 32 34 41 41 42 38 40 49 55 58 59 60 62 62 62 61 61 61 60 61 60 59 58 59 59 58 58 60 61 62 63 64 65 65 67 66
34 35 33 33 33 40 45 45 46 48 44 43 44 52 52 54 56 58 59 61 61 60 60 60 60 60 59 59 58 57 59 59 58 58 57 57 58 58 59 62 62 63 63 65
41 47 41 41 40 43 46 48 49 51 51 47 54 55 55 51 58 58 59 60 60 60 59 59 59 58 58 58 59 59 58 58 58 57 56 56 55 55 55 56 58 60 61 61
42 44 42 41 42 44 44 46 49 52 57 57 59 57 56 57 59 59 59 59 59 60 59 59 59 58 58 59 58 58 58 57 57 57 56 56 56 54 52 50 50 55 55 57
44 41 39 38 42 43 45 47 51 52 52 59 57 58 59 59 59 59 58 59 59 59 59 60 60 60 60 60 59 59 58 57 57 56 56 56 57 57 57 56 54 49 48 51
Wind_Speed
2 3 15 11 11 1 2 3 7 3 6 11 17 15 19 12 10 17 18 13 20 22 10 12 13 15 15 16 17 18 17 15 11 7 6 5 6 4 5 7 9 6 8 8
1 14 10 4 6 5 6 4 10 2 3 8 4 20 18 18 15 18 19 16 18 13 13 13 13 15 17 18 19 18 18 16 13 10 5 3 3 4 5 5 6 6 9 9
11 5 8 5 5 7 9 10 8 2 4 1 3 13 15 11 18 14 14 16 17 21 19 17 18 17 16 18 19 20 20 18 14 13 7 3 1 1 2 4 4 5 7 7
8 8 11 7 10 12 14 10 14 3 2 3 2 7 8 5 13 18 18 18 20 21 18 18 19 17 19 19 17 18 18 18 14 14 13 11 9 6 3 3 3 4 3 4
7 6 6 6 8 15 9 6 11 2 5 6 1 3 8 3 9 18 21 19 19 20 22 22 23 23 17 15 18 18 19 18 16 15 17 15 12 9 4 3 5 6 6 5
11 2 4 6 6 14 4 6 9 5 3 6 3 5 12 4 6 7 15 18 18 18 18 16 14 14 14 13 15 15 18 19 19 17 18 17 15 11 8 8 8 9 8 8
7 9 5 5 4 5 4 5 4 3 2 8 2 5 14 9 12 12 13 20 19 18 17 17 20 20 19 20 18 17 18 20 19 20 19 19 17 14 12 11 10 11 11 9
9 11 12 10 16 10 11 11 8 3 4 4 0 6 5 3 8 3 4 16 17 18 18 21 21 19 21 21 20 19 20 21 18 20 21 19 18 16 14 12 11 11 12 10
7 9 4 8 5 14 6 9 6 2 2 2 3 7 10 1 3 5 7 12 17 18 18 19 19 22 21 20 22 23 20 20 20 22 19 18 17 17 17 16 11 11 11 10
6 6 2 0 7 5 8 12 4 2 5 5 5 7 10 3 5 7 8 9 13 15 15 15 18 21 20 20 20 20 21 23 22 18 18 19 19 17 17 15 16 13 12 10
8 4 16 2 6 13 6 4 5 6 3 3 3 8 8 10 11 11 12 13 11 13 17 19 19 20 19 15 17 21 20 21 20 20 20 19 19 18 17 17 17 17 14 12
12 7 17 19 4 5 4 9 8 7 6 2 3 8 5 9 11 9 10 14 14 12 15 19 19 19 19 21 20 23 21 21 22 20 19 21 17 16 17 18 17 16 18 15
11 7 7 6 2 3 5 5 6 8 4 9 7 6 3 6 8 11 15 12 11 12 13 13 14 19 19 20 21 21 20 24 18 19 20 19 19 18 18 17 15 16 17 17
14 6 10 19 16 6 6 10 10 5 6 8 10 8 10 10 12 11 12 13 13 16 12 12 14 17 18 17 18 19 19 16 16 17 18 20 20 19 18 16 16 16 17 17
4 9 11 13 8 8 9 16 19 14 7 6 9 15 18 19 18 18 18 15 13 13 11 13 15 17 18 17 16 15 16 15 17 18 19 23 18 16 17 19 15 13 15 17
2 5 3 9 12 10 5 14 20 11 8 7 6 11 12 12 6 12 17 15 17 16 13 13 14 15 18 17 16 13 14 12 12 16 20 16 16 15 19 19 16 13 13 10
2 1 0 8 2 10 9 13 15 8 8 9 13 20 7 12 18 22 19 15 20 18 17 17 18 13 9 8 8 10 11 10 11 14 14 12 12 15 17 19 16 16 17 12
4 1 1 3 1 12 7 5 7 12 8 13 9 12 19 22 22 13 14 20 19 20 20 18 12 7 6 5 8 8 7 4 5 6 8 9 12 13 10 16 20 20 20 23
11 6 4 5 8 6 5 4 6 10 13 13 18 18 14 7 4 9 15 14 16 10 6 7 7 9 10 9 8 10 7 6 5 4 3 3 3 6 7 13 18 18 19 20
6 4 8 6 6 9 8 2 1 3 8 8 14 15 13 13 11 13 8 7 7 8 9 13 14 13 12 8 9 10 6 3 2 3 5 6 7 9 9 9 13 17 18 20
4 3 15 12 10 8 9 3 1 9 8 6 9 11 16 14 7 4 7 5 7 10 15 15 14 13 10 8 9 9 4 1 3 6 8 10 9 9 9 7 8 12 15 16
6 6 7 4 6 9 3 2 6 3 3 4 6 10 16 6 7 8 8 10 13 16 14 12 13 11 9 8 9 7 5 5 6 6 6 6 7 7 7 7 7 7 10 15
5 4 2 7 5 4 5 8 9 5 9 6 8 5 12 9 6 8 10 11 12 13 12 10 12 10 7 8 9 7 3 3 5 6 7 7 5 6 8 5 3 3 3 8
1 1 2 4 3 9 8 11 9 9 14 11 9 12 11 9 8 8 11 10 10 10 10 10 11 9 7 5 6 7 5 5 5 6 7 6 6 6 8 7 6 2 2 3
3 2 1 7 12 13 10 10 8 14 10 7 9 11 12 15 11 12 10 9 9 9 8 10 10 9 6 4 4 3 6 6 7 6 6 5 6 8 10 12 8 5 3 2
6 6 6 7 5 6 15 11 11 12 12 8 15 10 11 17 19 14 12 9 9 9 10 11 10 10 9 7 7 6 5 6 6 7 5 5 5 6 10 9 11 18 13 13
Wind_Direction
83 185 225 211 213 264 268 235 246 251 190 180 224 243 250 232 210 236 238 229 216 217 206 196 180 163 175 179 182 190 188 193 177 169 188 228 238 255 276 264 258 259 215 199
289 243 231 174 187 223 233 282 269 236 171 207 269 258 251 247 243 226 228 221 206 196 183 192 187 169 180 186 185 196 201 191 190 188 189 200 208 231 258 284 286 229 184 190
216 206 123 185 177 220 248 228 262 320 115 121 341 286 262 242 222 225 222 209 204 197 192 196 196 192 177 193 189 194 200 197 190 194 175 176 226 349 281 261 258 198 191 194
244 264 266 241 236 190 255 221 241 152 211 291 205 287 293 295 238 214 219 199 200 200 200 196 190 197 195 194 190 196 196 194 200 186 192 196 205 205 221 246 267 256 219 222
231 221 220 227 225 182 246 129 212 151 281 335 310 273 272 357 269 233 219 208 198 203 195 194 196 199 201 183 188 192 201 196 197 197 205 212 217 223 230 259 274 270 254 251
250 269 219 236 193 169 58 79 73 65 28 269 271 221 285 240 231 270 214 210 199 201 202 196 196 184 191 188 188 191 196 205 198 203 212 214 221 220 234 257 265 260 254 255
272 256 240 192 144 128 145 104 335 310 272 247 309 193 255 266 268 269 224 199 194 196 191 187 186 191 192 199 192 193 202 208 204 204 212 215 219 221 230 239 245 248 253 251
226 266 201 200 212 189 175 171 187 268 235 289 81 249 266 269 314 218 245 184 177 191 189 193 195 193 199 197 196 194 199 211 207 211 216 216 217 222 230 239 244 252 251 240
206 248 244 216 168 170 168 188 202 151 52 333 270 288 295 189 98 109 140 171 187 197 198 196 191 196 199 198 198 200 200 208 210 215 219 221 222 220 227 238 247 250 246 246
207 279 230 5 121 68 180 149 145 228 264 277 301 289 248 199 194 166 161 185 199 200 202 202 199 204 203 204 201 197 203 206 209 210 219 225 222 220 222 227 238 243 249 252
175 203 265 248 197 180 162 183 89 120 142 227 280 283 218 212 192 193 191 191 200 207 211 207 207 207 206 199 197 203 202 209 211 206 213 216 222 215 216 222 227 231 242 250
205 187 247 254 281 242 216 190 172 208 233 136 169 271 206 222 223 236 199 191 187 206 214 209 209 206 205 206 203 206 207 206 213 212 209 218 219 217 217 223 225 228 234 231
174 213 242 297 349 64 222 179 143 121 118 183 168 255 183 229 225 229 232 208 213 215 220 224 207 205 208 211 212 210 207 215 212 204 209 214 215 216 224 225 224 228 236 239
167 178 195 215 215 170 186 182 163 151 179 181 211 238 258 214 207 212 231 246 230 218 218 207 214 216 218 216 215 216 220 213 208 207 211 217 216 213 216 225 220 217 223 234
188 241 208 234 225 202 187 188 181 195 195 223 287 216 229 219 209 216 225 238 237 219 209 211 208 212 223 229 227 224 225 217 210 213 214 224 221 212 210 228 228 217 215 222
19 268 244 216 181 182 259 209 189 201 188 218 262 279 239 241 211 225 223 223 233 220 211 222 222 214 217 220 226 227 236 233 207 219 229 226 218 206 213 227 212 215 209 206
350 34 313 228 234 137 220 217 199 189 191 192 235 250 204 217 227 234 225 215 222 217 208 209 208 207 199 209 207 213 213 216 216 228 237 237 230 215 208 216 218 195 166 155
253 293 175 259 103 208 221 209 225 227 227 211 240 243 211 215 225 242 206 210 214 209 208 211 202 187 158 122 107 104 102 153 189 232 250 249 247 245 204 208 216 206 195 206
209 190 212 212 218 285 261 210 200 195 240 206 225 250 228 203 164 244 211 212 219 196 183 177 171 144 120 113 107 103 82 73 70 42 13 346 277 247 219 204 215 211 205 204
143 191 210 173 213 221 225 232 300 169 235 226 219 233 198 154 190 228 171 155 131 132 140 135 126 120 116 110 111 104 85 63 16 325 305 308 305 287 269 242 219 214 215 218
186 176 209 205 224 258 249 268 5 214 241 300 230 218 179 189 195 139 123 116 125 129 128 123 119 119 117 119 115 99 103 28 318 312 309 301 289 286 280 282 259 234 219 215
233 219 210 167 211 249 4 146 191 257 252 262 219 206 186 152 125 128 122 131 131 125 120 119 117 108 106 110 104 88 63 9 356 345 338 323 314 320 307 292 290 271 236 214
236 220 244 214 240 288 297 275 294 301 272 231 205 163 149 139 152 140 122 124 126 127 127 125 121 116 105 98 98 103 86 49 10 2 359 352 354 2 351 327 305 289 289 249
211 151 268 331 324 283 295 308 296 300 275 274 164 154 155 138 136 123 131 136 138 138 137 132 129 123 124 112 99 101 83 58 52 31 15 10 20 35 22 14 10 332 289 251
209 179 253 279 293 299 294 282 305 330 323 193 143 144 146 144 153 153 157 159 160 159 143 141 140 130 132 113 104 125 124 106 85 69 45 44 57 66 63 54 26 17 27 282
213 230 240 258 272 303 293 309 327 321 331 274 149 151 166 154 162 164 167 166 168 165 159 149 142 142 154 152 164 177 167 139 130 102 86 62 72 75 81 69 56 48 61 65